TimeMST,TemperatureF,Dew PointF,Humidity,Sea Level PressureIn,VisibilityMPH,Wind Direction,Wind SpeedMPH,Gust SpeedMPH,PrecipitationIn,Events,Conditions,WindDirDegrees,DateUTC
12:53 AM,5.0,-2.9,70,30.18,10.0,ENE,6.9,-,N/A,,Clear,60,2013-01-05 07:53:00
1:53 AM,7.0,-2.0,67,30.18,10.0,NE,8.1,-,N/A,,Clear,50,2013-01-05 08:53:00
2:53 AM,10.0,-0.9,61,30.17,10.0,ENE,8.1,-,N/A,,Clear,60,2013-01-05 09:53:00
3:53 AM,9.0,-0.9,64,30.19,10.0,North,8.1,-,N/A,,Clear,10,2013-01-05 10:53:00
4:53 AM,14.0,-0.0,54,30.20,10.0,NE,8.1,-,N/A,,Clear,40,2013-01-05 11:53:00
5:53 AM,23.0,3.9,44,30.19,10.0,North,9.2,-,N/A,,Clear,350,2013-01-05 12:53:00
6:53 AM,12.9,-0.0,56,30.29,10.0,ENE,4.6,-,N/A,,Clear,70,2013-01-05 13:53:00
7:53 AM,18.0,1.9,50,30.29,10.0,NE,11.5,-,N/A,,Clear,40,2013-01-05 14:53:00
8:53 AM,19.9,5.0,52,30.33,10.0,ENE,5.8,-,N/A,,Clear,70,2013-01-05 15:53:00
9:53 AM,28.9,7.0,40,30.32,10.0,NNE,5.8,-,N/A,,Clear,20,2013-01-05 16:53:00
10:53 AM,34.0,10.0,37,30.32,10.0,ENE,6.9,-,N/A,,Clear,70,2013-01-05 17:53:00
11:53 AM,35.1,15.1,44,30.28,10.0,East,8.1,-,N/A,,Clear,90,2013-01-05 18:53:00
12:53 PM,37.9,17.1,43,30.27,10.0,East,9.2,-,N/A,,Clear,100,2013-01-05 19:53:00
1:53 PM,37.0,18.0,46,30.27,10.0,ESE,9.2,-,N/A,,Clear,120,2013-01-05 20:53:00
2:53 PM,39.9,10.9,31,30.27,10.0,NE,3.5,-,N/A,,Clear,50,2013-01-05 21:53:00
3:53 PM,37.9,14.0,38,30.30,10.0,NE,6.9,-,N/A,,Clear,50,2013-01-05 22:53:00
4:53 PM,28.0,14.0,56,30.36,10.0,SSW,5.8,-,N/A,,Clear,200,2013-01-05 23:53:00
5:53 PM,25.0,14.0,63,30.36,10.0,WSW,5.8,-,N/A,,Clear,250,2013-01-06 00:53:00
6:53 PM,27.0,12.9,56,30.43,10.0,West,3.5,-,N/A,,Clear,270,2013-01-06 01:53:00
7:53 PM,18.0,10.9,74,30.46,10.0,NE,6.9,-,N/A,,Clear,50,2013-01-06 02:53:00
8:53 PM,16.0,8.1,71,30.47,10.0,ENE,6.9,-,N/A,,Clear,70,2013-01-06 03:53:00
9:53 PM,15.1,8.1,74,30.45,10.0,ENE,6.9,-,0.01,,Clear,60,2013-01-06 04:53:00
10:53 PM,14.0,7.0,74,30.43,10.0,ENE,6.9,-,N/A,,Clear,60,2013-01-06 05:53:00
11:53 PM,12.9,6.1,74,30.43,10.0,NE,6.9,-,N/A,,Clear,40,2013-01-06 06:53:00